CW3660 Weather Reports


Display with metric or nautical units.
time (UTC)temp
F
wind
direction
speed
MPH
gust
MPH
rain 1hr
in
rain 24hr
in
rain mn
in
humidity
%
barometer
mb
20220625174021 87 135 3.0 8.0 0.00 0.00 0.00 43 1018.6
20220625173016 86 135 2.0 5.0 0.00 0.00 0.00 44 1018.6
20220625172016 86 0 3.0 8.0 0.00 0.00 0.00 46 1018.6
20220625171021 86 0 4.0 9.0 0.00 0.00 0.00 44 1018.8
20220625170021 87 158 3.0 7.0 0.00 0.00 0.00 43 1018.7
20220625165021 88 270 2.0 7.0 0.00 0.00 0.00 42 1018.9
20220625164021 87 203 2.0 4.0 0.00 0.00 0.00 44 1018.8
20220625163021 87 315 1.0 5.0 0.00 0.00 0.00 43 1018.9
20220625162016 85 0 2.0 5.0 0.00 0.00 0.00 47 1018.9
20220625161021 84 45 3.0 7.0 0.00 0.00 0.00 45 1019.0
20220625160021 85 0 3.0 6.0 0.00 0.00 0.00 45 1019.0
20220625155021 85 90 1.0 5.0 0.00 0.00 0.00 46 1018.9
20220625154023 84 0 3.0 8.0 0.00 0.00 0.00 47 1018.9
20220625153021 84 338 4.0 7.0 0.00 0.00 0.00 45 1018.9
20220625152017 85 315 1.0 6.0 0.00 0.00 0.00 44 1018.7
20220625151017 84 315 1.0 3.0 0.00 0.00 0.00 44 1018.7
20220625150022 83 338 2.0 4.0 0.00 0.00 0.00 45 1018.7
20220625145021 84 180 1.0 3.0 0.00 0.00 0.00 46 1018.7
20220625144022 82 23 1.0 4.0 0.00 0.00 0.00 48 1018.7
20220625143022 82 315 2.0 4.0 0.00 0.00 0.00 50 1018.8
20220625142021 81 270 1.0 5.0 0.00 0.00 0.00 53 1018.8
20220625141016 81 315 2.0 5.0 0.00 0.00 0.00 54 1018.8
20220625140021 80 0 1.0 2.0 0.00 0.00 0.00 57 1018.7
20220625135021 79 0 1.0 3.0 0.00 0.00 0.00 56 1018.7
20220625134021 78 338 1.0 3.0 0.00 0.00 0.00 59 1018.7
20220625133021 78 338 1.0 3.0 0.00 0.00 0.00 63 1018.8
20220625132021 76 270 1.0 4.0 0.00 0.00 0.00 64 1018.8
20220625131016 75 338 1.0 2.0 0.00 0.00 0.00 66 1018.8
20220625130016 74 315 1.0 4.0 0.00 0.00 0.00 66 1018.8
20220625125021 74 248 1.0 3.0 0.00 0.00 0.00 68 1018.9
20220625124021 73 293 1.0 3.0 0.00 0.00 0.00 71 1018.9
20220625123021 71 338 2.0 4.0 0.00 0.00 0.00 73 1018.9
20220625122021 70 0 2.0 4.0 0.00 0.00 0.00 74 1018.8
20220625121021 69 0 1.0 3.0 0.00 0.00 0.00 77 1018.7
20220625120016 68 338 2.0 5.0 0.00 0.00 0.00 79 1018.7
20220625115021 67 315 2.0 4.0 0.00 0.00 0.00 82 1018.8
20220625114021 66 0.0 4.0 0.00 0.00 0.00 86 1018.8
20220625113021 64 0.0 3.0 0.00 0.00 0.00 90 1018.7
20220625112021 63 315 1.0 3.0 0.00 0.00 0.00 92 1018.7
20220625111021 62 315 1.0 4.0 0.00 0.00 0.00 93 1018.7
20220625110017 62 0.0 2.0 0.00 0.00 0.00 93 1018.6
20220625105015 61 0.0 2.0 0.00 0.00 0.00 94 1018.5
20220625104021 61 0.0 1.0 0.00 0.00 0.00 93 1018.4
20220625103021 61 0.0 2.0 0.00 0.00 0.00 93 1018.3
20220625102020 61 0.0 2.0 0.00 0.00 0.00 93 1018.3
20220625101020 61 0.0 0.0 0.00 0.00 0.00 93 1018.1
20220625100020 61 0.0 1.0 0.00 0.00 0.00 93 1018.1
20220625095016 61 315 1.0 2.0 0.00 0.00 0.00 93 1017.9
20220625094021 61 315 1.0 3.0 0.00 0.00 0.00 93 1017.8
20220625093020 61 315 1.0 2.0 0.00 0.00 0.00 93 1017.6
20220625092021 62 315 1.0 3.0 0.00 0.00 0.00 93 1017.5
20220625091021 62 0 1.0 3.0 0.00 0.00 0.00 93 1017.4
20220625090021 62 0 1.0 3.0 0.00 0.00 0.00 93 1017.1
20220625085021 62 0 1.0 3.0 0.00 0.00 0.00 93 1017.0
20220625084015 62 315 1.0 4.0 0.00 0.00 0.00 93 1016.9
20220625083022 62 315 1.0 3.0 0.00 0.00 0.00 93 1016.8
20220625082020 63 315 1.0 3.0 0.00 0.00 0.00 93 1016.7
20220625081020 63 338 1.0 3.0 0.00 0.00 0.00 93 1016.6
20220625080020 63 0.0 1.0 0.00 0.00 0.00 93 1016.4
20220625075021 63 0.0 2.0 0.00 0.00 0.00 93 1016.3
20220625074015 63 338 1.0 2.0 0.00 0.00 0.00 93 1016.3
20220625073020 64 0.0 2.0 0.00 0.00 0.00 92 1016.3
20220625072020 64 0.0 2.0 0.00 0.00 0.00 92 1016.3
20220625071020 64 0.0 2.0 0.00 0.00 0.00 92 1016.4
20220625070021 64 338 1.0 3.0 0.00 0.00 0.00 92 1016.3
20220625065020 64 0.0 2.0 0.00 0.00 0.00 91 1016.3
20220625064022 64 0.0 1.0 0.00 0.00 0.00 91 1016.4
20220625063016 65 0.0 1.0 0.00 0.00 0.00 91 1016.3
20220625062021 65 0.0 2.0 0.00 0.00 0.00 91 1016.4
20220625061020 65 0.0 2.0 0.00 0.00 0.00 91 1016.3
20220625060020 65 0.0 2.0 0.00 0.00 0.00 91 1016.3
20220625055020 65 0.0 2.0 0.00 0.00 0.00 90 1016.3
20220625054021 65 0.0 2.0 0.00 0.00 0.00 90 1016.1
20220625053016 65 0.0 2.0 0.00 0.00 0.00 89 1016.1
20220625052021 65 0.0 1.0 0.00 0.00 0.00 88 1016.2
20220625051020 66 0.0 0.0 0.00 0.00 0.00 87 1016.2
20220625050020 66 0.0 0.0 0.00 0.00 0.00 86 1016.3
20220625045020 66 0.0 0.0 0.00 0.00 0.00 85 1016.2
20220625044021 66 0.0 0.0 0.00 0.00 0.00 85 1016.3
20220625043020 67 0.0 0.0 0.00 0.00 0.00 85 1016.2
20220625042015 67 0.0 0.0 0.00 0.00 0.00 84 1016.3
20220625041020 67 0.0 0.0 0.00 0.00 0.00 83 1016.3
20220625040020 67 0.0 0.0 0.00 0.00 0.00 82 1016.3
20220625035020 68 0.0 0.0 0.00 0.00 0.00 81 1016.3
20220625034021 68 0.0 0.0 0.00 0.00 0.00 81 1016.4
20220625033021 68 0.0 0.0 0.00 0.00 0.00 80 1016.4
20220625032020 69 0.0 0.0 0.00 0.00 0.00 79 1016.3
20220625031016 69 0.0 0.0 0.00 0.00 0.00 78 1016.3
20220625030015 69 0.0 0.0 0.00 0.00 0.00 77 1016.3
20220625025020 70 0.0 0.0 0.00 0.00 0.00 76 1016.3
20220625024020 70 0.0 0.0 0.00 0.00 0.00 75 1016.2
20220625023020 70 0.0 0.0 0.00 0.00 0.00 75 1016.2
20220625022020 71 0.0 0.0 0.00 0.00 0.00 74 1016.2
20220625021020 71 0.0 0.0 0.00 0.00 0.00 73 1016.1
20220625020015 71 0.0 1.0 0.00 0.00 0.00 73 1016.0
20220625015020 72 0.0 1.0 0.00 0.00 0.00 72 1015.9
20220625014020 72 135 1.0 3.0 0.00 0.00 0.00 72 1015.8
20220625013021 72 135 1.0 3.0 0.00 0.00 0.00 71 1015.7
20220625012020 73 0.0 2.0 0.00 0.00 0.00 70 1015.7
20220625011022 73 135 1.0 3.0 0.00 0.00 0.00 70 1015.6
20220625010021 73 180 2.0 4.0 0.00 0.00 0.00 69 1015.5
20220625005015 74 158 1.0 3.0 0.00 0.00 0.00 69 1015.3
20220625004020 75 135 2.0 5.0 0.00 0.00 0.00 68 1015.2
20220625003020 75 113 2.0 4.0 0.00 0.00 0.00 67 1015.2
20220625002020 76 113 1.0 5.0 0.00 0.00 0.00 65 1015.0
20220625001020 76 113 1.0 4.0 0.00 0.00 0.00 64 1015.0
20220625000020 77 135 1.0 3.0 0.00 0.00 0.00 64 1015.0
20220624235015 77 158 2.0 4.0 0.00 0.00 0.00 63 1014.9
20220624234020 78 158 2.0 5.0 0.00 0.00 0.00 62 1014.8
20220624233020 78 158 2.0 7.0 0.00 0.00 0.00 61 1014.7
20220624232020 79 0.0 2.0 0.00 0.00 0.00 60 1014.6
20220624231020 79 338 1.0 4.0 0.00 0.00 0.00 60 1014.5
20220624230020 79 0 1.0 3.0 0.00 0.00 0.00 60 1014.4
20220624225020 79 0 1.0 4.0 0.00 0.00 0.00 58 1014.4
20220624224015 80 338 1.0 4.0 0.00 0.00 0.00 59 1014.3
20220624223020 80 0.0 2.0 0.00 0.00 0.00 59 1014.3
20220624222021 80 203 1.0 4.0 0.00 0.00 0.00 57 1014.2
20220624221020 80 338 1.0 4.0 0.00 0.00 0.00 57 1014.2
20220624220020 81 315 1.0 3.0 0.00 0.00 0.00 57 1014.2
20220624215020 81 338 1.0 3.0 0.00 0.00 0.00 57 1014.2
20220624214022 81 338 1.0 3.0 0.00 0.00 0.00 56 1014.1
20220624213021 81 270 1.0 4.0 0.00 0.00 0.00 55 1014.1
20220624212022 82 338 2.0 5.0 0.00 0.00 0.00 53 1014.1
20220624211022 82 338 2.0 7.0 0.00 0.00 0.00 54 1014.1
20220624210023 83 338 1.0 4.0 0.00 0.00 0.00 53 1014.1
20220624205017 83 338 2.0 5.0 0.00 0.00 0.00 53 1014.1
20220624204020 83 0 3.0 6.0 0.00 0.00 0.00 52 1014.2
20220624203022 83 248 1.0 5.0 0.00 0.00 0.00 54 1014.1
20220624202022 82 293 1.0 6.0 0.00 0.00 0.00 55 1014.3
20220624201023 82 23 2.0 5.0 0.00 0.00 0.00 54 1014.4
20220624200022 81 203 1.0 4.0 0.00 0.00 0.00 57 1014.3
20220624195022 80 293 2.0 6.0 0.00 0.00 0.00 58 1014.5
20220624194017 81 293 2.0 5.0 0.00 0.00 0.00 58 1014.5
20220624193022 81 0 4.0 9.0 0.00 0.00 0.00 57 1014.5
20220624192022 81 0 2.0 7.0 0.00 0.00 0.00 57 1014.6
20220624191021 81 338 2.0 6.0 0.00 0.00 0.00 57 1014.6
20220624190022 80 225 2.0 5.0 0.00 0.00 0.00 59 1014.7
20220624185022 79 23 3.0 8.0 0.00 0.00 0.00 61 1014.6
20220624184016 80 248 2.0 4.0 0.00 0.00 0.00 60 1014.7
20220624183022 78 0 3.0 7.0 0.00 0.00 0.00 63 1014.9
20220624182022 77 315 3.0 8.0 0.00 0.00 0.00 64 1014.9
20220624181021 77 45 2.0 5.0 0.00 0.00 0.00 62 1014.9
20220624180021 77 338 3.0 7.0 0.00 0.00 0.00 61 1014.9
20220624175022 79 315 2.0 5.0 0.00 0.00 0.00 59 1014.9